Home > Time Zones > World Clock > Weather > Iran > Yazd > Past weeks

Flag for Iran Weather past 2 weeks in Yazd, Iran

Now
68 °F

Passing clouds.


Feels Like: 68 °F
Forecast: 45 / 64 °F
Wind: 2 mph from West

Location: Yazd Airport

Current Time: Mar 2, 2015 at 3:37:27 PM

Latest Report: Mar 2, 2015 at 3:00 PM


Visibility: N/A

Pressure: 29.86 "Hg

Humidity: 16%

Dew point: 19 °F

Location of YazdLocation

Historic Weather in Yazd — Graph

°F

Yazd temperature yesterday

Maximum temperature yesterday: 68 °F (at 2:30 PM)
Minimum temperature yesterday: 37 °F (at 5:30 AM)
Average temperature yesterday: 52 °F

Past Weeks' High & Low Weather Summary

 TemperatureHumidityPressure
High73 °F (Feb 17, 3:30 PM)100% (Feb 18, 9:30 AM)30.33 "Hg (Feb 18, 9:30 AM)
Low30 °F (Feb 23, 4:30 AM)12% (Mar 1, 2:30 PM)29.56 "Hg (Feb 20, 11:00 PM)
Average49 °F54%30.02 "Hg
* Reported Feb 15 2:30 PM — Mar 2 2:30 PM, Yazd, Weather by CustomWeather, © 2015

Note: Actual official high and low records may vary slightly from our data, if they occured in-between our weather recording intervals... More about our weather records

Advertising

Yazd weather history for previous 24 hours

 ConditionsComfort  
Time TempWeatherWind HumidityBarometerVisibility
2:30 PM
Mon, Mar 2
66 °FPassing clouds.5 mph18%29.89 "HgN/A
1:30 PM64 °FPassing clouds.7 mph18%29.89 "HgN/A
12:30 PM64 °FPassing clouds.5 mph18%29.95 "HgN/A
11:30 AM63 °FPassing clouds.2 mph20%29.98 "HgN/A
10:30 AM59 °FPassing clouds.5 mph23%30.01 "HgN/A
9:30 AM55 °FPassing clouds.7 mph28%30.01 "HgN/A
9:00 AM54 °FSunny.5 mph33%30.01 "Hg10 mi
8:30 AM50 °FSunny.5 mph37%29.98 "Hg10 mi
8:00 AM46 °FSunny.7 mph46%29.98 "Hg10 mi
7:30 AM45 °FSunny.5 mph49%29.98 "Hg10 mi
7:00 AM43 °FSunny.5 mph53%29.95 "Hg10 mi
6:30 AM43 °FClear.5 mph53%29.95 "Hg10 mi
6:00 AM41 °FClear.2 mph57%29.95 "Hg10 mi
5:30 AM43 °FClear.2 mph49%29.92 "Hg10 mi
4:30 AM43 °FClear.5 mph49%29.92 "Hg10 mi
3:30 AM43 °FClear.2 mph49%29.92 "Hg10 mi
2:30 AM45 °FClear.2 mph46%29.92 "Hg10 mi
1:30 AM48 °FClear.2 mph37%29.92 "Hg10 mi
12:30 AM52 °FPassing clouds.7 mph28%29.92 "HgN/A
11:30 PM
Sun, Mar 1
52 °FClear.7 mph28%29.92 "Hg10 mi
10:30 PM52 °FClear.7 mph30%29.92 "Hg10 mi
9:30 PM52 °FClear.5 mph32%29.89 "Hg10 mi
9:00 PM54 °FClear.7 mph30%29.89 "Hg10 mi
8:30 PM55 °FClear.7 mph26%29.89 "Hg10 mi
8:00 PM55 °FClear.9 mph26%29.89 "Hg10 mi
7:30 PM57 °FClear.5 mph23%29.89 "Hg10 mi
7:00 PM59 °FClear.2 mph21%29.89 "Hg10 mi
6:30 PM61 °FClear.5 mph17%29.89 "Hg10 mi
6:00 PM63 °FSunny.5 mph16%29.86 "Hg10 mi
5:30 PM64 °FSunny.9 mph14%29.86 "Hg10 mi
4:30 PM66 °FSunny.7 mph12%29.86 "Hg10 mi
3:30 PM66 °FSunny.9 mph12%29.86 "Hg10 mi
Weather by CustomWeather, © 2015

See weather overviewHow to use our weather pages